Dewpoint
24 24 22 20 16 20 20 20 21 22 32 45 44 42 43 41 45 45 49 50 52 53 54 58 58 60 63 68 67 68 69 71 70 72 72 72 70 72 70 71 72 73 73 73
21 21 23 22 19 17 18 19 21 23 33 43 47 44 45 42 41 45 46 49 50 52 53 56 57 58 62 66 67 68 69 74 71 72 72 71 71 72 71 72 73 73 73 74
19 23 24 20 19 19 17 18 20 23 33 39 46 45 47 41 44 45 45 47 50 50 51 56 56 58 60 65 68 68 69 73 73 72 73 73 73 72 70 70 72 73 74 74
20 21 20 19 16 16 18 20 21 22 25 32 43 39 45 41 43 45 44 44 47 49 52 55 56 58 59 65 69 69 70 73 72 73 71 70 69 69 70 71 72 73 74 73
18 20 19 15 12 10 16 22 21 22 23 34 33 32 42 45 44 44 43 44 44 46 49 54 57 57 60 65 67 70 71 71 72 73 71 71 70 69 70 69 70 73 72 72
17 18 17 18 15 9 11 17 21 22 22 24 31 32 37 41 43 43 44 45 45 45 47 53 55 58 59 64 67 71 71 71 73 71 72 72 71 70 69 70 72 72 72 70
22 19 15 16 14 10 8 9 15 18 19 21 30 31 39 40 40 44 44 45 46 47 47 48 54 57 59 63 67 70 71 72 73 73 72 72 72 70 69 71 70 70 69 68
17 19 20 17 14 10 7 6 10 16 18 20 25 28 34 38 39 44 44 43 45 46 48 49 54 56 59 61 66 70 71 71 73 73 74 73 74 70 71 72 70 67 67 68
15 18 23 19 17 13 12 6 6 9 16 20 21 23 25 39 37 40 41 40 43 43 49 50 51 55 59 61 66 67 72 72 73 74 74 73 73 74 74 71 72 68 66 69
18 21 20 20 17 15 10 13 6 6 7 13 17 22 26 31 38 42 42 42 42 43 48 51 51 54 59 61 65 67 72 72 73 72 74 74 74 73 74 72 71 70 67 70
16 16 17 20 17 14 14 9 9 8 8 11 17 18 25 34 41 41 40 39 38 42 45 51 52 54 59 61 63 67 71 72 73 73 72 74 75 74 73 73 72 70 70 70
18 16 15 16 19 17 14 13 11 11 14 17 12 13 25 23 39 40 39 38 40 42 48 51 52 54 60 60 61 66 71 72 73 74 74 72 74 74 73 72 73 72 69 70
19 16 15 16 16 17 13 14 13 10 15 15 20 15 15 18 39 40 42 45 42 44 50 51 51 55 58 60 61 64 69 72 73 74 74 74 73 74 74 72 73 74 71 71
40 17 14 14 16 22 23 16 16 11 10 10 9 10 15 33 39 31 39 39 40 45 48 49 51 54 57 60 62 62 66 70 72 73 73 73 73 73 74 74 72 73 74 71
22 22 18 16 18 20 17 21 16 14 10 14 13 12 16 23 41 41 40 42 39 43 53 52 51 53 56 58 61 62 64 66 70 72 72 72 73 73 74 73 74 73 73 72
29 29 28 21 18 15 14 19 21 15 15 16 17 17 23 28 43 42 41 37 33 39 51 53 53 52 54 56 59 61 63 64 66 70 71 71 71 72 72 73 73 74 72 74
30 28 29 22 25 25 17 16 20 23 19 19 16 16 23 25 32 39 43 39 37 40 50 52 54 58 55 57 58 61 63 64 65 67 70 70 70 71 72 72 73 74 74 74
27 28 30 23 28 25 26 27 24 25 28 22 21 25 29 31 33 36 34 30 31 46 47 53 56 58 62 59 59 60 61 63 64 65 67 69 70 70 72 72 73 72 74 73
27 27 27 28 24 26 25 26 27 27 25 33 37 36 39 44 32 30 40 36 34 26 35 42 54 58 60 62 61 60 61 63 63 63 65 68 69 70 71 72 72 73 72 74
25 25 30 29 24 21 27 29 30 38 35 47 47 47 46 44 40 43 52 49 47 42 38 34 39 53 62 61 63 61 61 61 63 62 66 67 68 69 71 72 72 72 73 74
29 36 31 28 24 26 32 25 40 35 38 49 49 49 49 47 49 50 52 51 52 50 43 39 44 53 60 63 65 63 61 61 63 66 68 69 70 71 72 72 73 74 73 71
40 38 35 33 30 28 43 41 36 45 51 53 50 49 48 49 50 49 50 51 50 54 53 48 46 60 65 65 66 66 66 67 67 73 72 76 75 75 76 75 74 72 71 70
39 43 45 39 44 49 53 52 52 57 57 59 60 60 58 59 60 62 63 60 62 61 64 69 70 70 70 69 68 69 73 73 74 73 74 75 74 76 74 72 71 70 69 68
43 50 47 46 46 47 50 50 57 57 57 57 59 60 60 58 59 60 62 64 66 68 67 69 69 71 72 74 74 74 73 73 73 73 74 72 72 71 71 70 70 69 67 67
48 49 48 48 52 53 54 56 56 56 55 56 56 56 57 58 58 59 60 63 66 67 69 71 72 72 72 73 73 73 73 74 72 72 71 70 69 66 60 54 60 66 61 63
49 49 48 49 51 52 51 55 56 54 54 52 52 53 54 54 54 55 57 59 62 66 67 67 69 70 71 73 72 72 72 71 70 68 68 66 65 63 61 59 55 46 46 46
Lifted_Index
9 8 7 7 7 5 3 2 1 0 -1 -1 -1 -0 -0 0 1 1 1 0 0 0 0 0 0 -0 -1 -2 -3 -3 -3 -4 -4 -5 -5 -5 -5 -5 -5 -4 -5 -5 -5 -5
9 8 7 7 7 5 4 2 1 0 -1 -1 -1 -0 0 0 0 1 1 1 0 0 0 0 0 0 -1 -2 -2 -2 -3 -4 -4 -4 -5 -5 -5 -5 -5 -5 -5 -5 -5 -5
8 8 8 7 7 6 4 2 1 0 -0 -1 -1 -1 -0 -0 0 0 1 1 0 0 1 1 1 0 -0 -1 -2 -2 -3 -4 -4 -4 -4 -4 -4 -4 -5 -5 -5 -5 -5 -5
8 8 8 7 6 6 4 3 2 1 -0 -0 -1 -1 -1 -1 -0 0 0 1 0 1 1 1 0 0 -0 -1 -2 -3 -3 -4 -4 -4 -4 -4 -4 -4 -4 -5 -5 -5 -5 -5
7 8 8 7 7 6 5 3 2 1 -0 -0 -0 -0 -1 -1 -1 -0 -0 -0 0 0 0 0 -0 -0 -1 -1 -2 -3 -3 -4 -4 -4 -4 -4 -4 -4 -4 -4 -5 -5 -5 -5
7 8 8 7 6 5 4 3 2 1 0 -0 -0 -0 -0 -1 -1 -1 -1 -1 -1 -1 -1 -1 -1 -1 -2 -2 -3 -4 -4 -4 -4 -4 -4 -4 -4 -4 -4 -4 -5 -5 -5 -4
7 7 7 7 6 5 4 3 2 1 0 0 -0 0 1 0 -1 -1 -1 -1 -1 -1 -1 -1 -2 -2 -3 -3 -4 -5 -5 -5 -5 -5 -5 -5 -5 -5 -4 -5 -5 -4 -4 -4
4 5 6 7 6 5 4 3 2 1 1 1 0 1 1 1 -0 -1 -1 -1 -1 -1 -1 -2 -2 -3 -3 -4 -5 -6 -6 -6 -6 -6 -6 -6 -6 -6 -5 -5 -5 -4 -4 -4
3 4 5 6 5 5 4 4 3 2 1 1 1 1 1 0 -0 -1 -1 -1 -1 -1 -1 -2 -2 -3 -3 -4 -5 -6 -7 -7 -6 -7 -7 -7 -7 -7 -6 -6 -5 -5 -4 -4
4 4 4 5 5 4 4 4 3 2 1 1 1 1 1 0 -0 -0 -0 -0 -0 -1 -1 -2 -2 -2 -3 -4 -5 -6 -7 -7 -7 -7 -7 -7 -7 -7 -7 -7 -6 -5 -5 -5
4 4 4 4 4 4 4 3 3 2 1 1 1 2 1 0 -0 -0 -0 0 0 -0 -1 -2 -2 -2 -3 -3 -5 -6 -7 -8 -7 -7 -7 -7 -7 -7 -7 -7 -7 -6 -6 -5
3 3 3 3 3 3 3 3 3 2 2 2 2 2 2 1 0 -0 -0 0 0 -0 -1 -2 -2 -3 -3 -3 -4 -6 -7 -8 -8 -7 -7 -7 -7 -7 -7 -7 -7 -7 -6 -6
2 2 3 3 3 3 2 2 2 2 2 2 2 3 2 1 0 -0 -0 -0 0 -1 -2 -3 -3 -3 -3 -4 -4 -5 -7 -8 -8 -8 -8 -7 -7 -8 -8 -8 -8 -8 -7 -6
1 1 2 2 2 2 2 1 1 2 3 3 3 3 3 2 1 -0 -0 -0 -0 -1 -2 -3 -3 -3 -3 -4 -4 -5 -6 -8 -8 -8 -8 -8 -8 -8 -8 -8 -8 -8 -8 -8
2 1 1 1 2 2 1 0 0 1 2 3 3 3 3 2 1 -0 -0 -0 -0 -1 -2 -3 -3 -4 -3 -3 -4 -4 -5 -7 -8 -8 -8 -8 -8 -8 -9 -9 -9 -9 -9 -9
2 1 0 0 1 1 1 0 -0 0 1 1 2 3 3 2 1 -0 -0 -0 -0 -1 -2 -3 -4 -4 -3 -3 -3 -4 -4 -6 -7 -8 -8 -8 -8 -8 -9 -9 -9 -9 -9 -9
2 1 0 -0 -0 0 1 1 0 -0 -0 0 1 2 2 2 1 0 -0 -0 0 -0 -2 -3 -4 -4 -4 -4 -3 -4 -4 -5 -6 -7 -8 -8 -8 -8 -8 -9 -9 -9 -9 -9
2 2 1 -0 -0 0 1 2 1 0 -0 -0 0 1 1 2 1 1 0 1 1 1 -1 -2 -4 -5 -5 -5 -4 -4 -4 -4 -5 -6 -7 -7 -7 -8 -8 -9 -9 -9 -9 -9
3 2 1 0 -0 0 1 2 1 0 -0 -1 -1 -1 0 1 2 1 1 1 1 1 1 -1 -3 -4 -6 -6 -6 -5 -4 -4 -4 -5 -6 -7 -7 -8 -8 -9 -9 -9 -9 -10
2 1 1 0 0 0 1 1 1 -0 -1 -1 -2 -2 -1 -0 1 1 0 0 0 1 1 1 -0 -2 -5 -6 -6 -6 -5 -4 -4 -5 -6 -7 -7 -8 -8 -9 -9 -9 -10 -10
1 0 0 -0 -0 -0 0 0 -1 -1 -2 -2 -2 -2 -2 -1 -0 0 0 0 -0 -0 0 1 1 -1 -4 -6 -7 -6 -6 -5 -5 -6 -7 -8 -8 -9 -9 -9 -10 -10 -10 -10
-0 -0 -0 -1 -1 -2 -2 -2 -2 -3 -3 -3 -3 -3 -3 -2 -2 -2 -2 -2 -2 -2 -3 -2 -2 -3 -5 -6 -7 -7 -7 -7 -7 -8 -9 -10 -10 -10 -10 -10 -10 -10 -10 -10
0 0 -0 -1 -2 -3 -3 -3 -4 -4 -4 -4 -4 -4 -4 -4 -4 -4 -4 -5 -5 -6 -6 -6 -6 -7 -8 -8 -9 -9 -9 -9 -9 -10 -10 -11 -11 -11 -11 -11 -10 -10 -10 -9
0 0 -0 -1 -2 -3 -3 -4 -4 -4 -4 -4 -4 -4 -4 -5 -5 -6 -6 -6 -7 -8 -9 -9 -9 -10 -10 -10 -10 -10 -10 -10 -10 -10 -10 -10 -10 -11 -10 -10 -9 -9 -8 -8
1 0 -0 -1 -2 -2 -3 -3 -3 -3 -3 -3 -3 -3 -4 -4 -5 -5 -5 -6 -7 -8 -9 -10 -10 -11 -11 -11 -11 -11 -11 -10 -10 -10 -10 -10 -10 -10 -9 -9 -8 -8 -7 -6
1 0 -1 -1 -1 -1 -2 -3 -3 -3 -3 -2 -3 -3 -3 -4 -4 -4 -4 -5 -6 -7 -8 -9 -10 -11 -11 -11 -11 -11 -10 -10 -10 -9 -9 -9 -9 -9 -9 -8 -7 -6 -6 -6